Vorticity
7 9 8 11 5 -1 3 3 6 5 -2 5 13 6 7 13 5 2 4 9 11 2 -2 4 7 4 5 6 1 2 5 6 7 6 6 7 7 6 7 7 5 7 8 7 5 6 6 6 5 4 4 3 3 4 4 5 4 4 7 8 7 7 8 8 8 9 8 7 7 5 5 6 5 5 5 6 7 6 6 5 5 3 4 5 4 4 4 4 5 5 4 6 7 6 5 6 7
8 9 4 7 4 2 6 7 10 4 3 9 12 14 11 10 5 4 4 5 7 1 0 5 7 7 6 6 5 6 6 9 10 6 7 7 7 8 7 8 7 6 6 6 6 5 4 3 3 3 4 4 4 5 4 5 6 6 7 7 7 7 6 7 7 9 8 6 6 4 4 5 6 5 5 6 6 5 5 5 5 4 4 5 5 5 5 5 4 5 7 7 8 9 7 7 9
8 7 5 7 3 5 8 4 7 7 12 12 9 11 7 7 5 6 7 6 7 6 5 3 6 6 5 6 6 9 7 7 7 6 7 6 7 8 7 8 8 6 6 5 5 5 4 4 4 6 6 5 6 6 7 8 8 9 8 7 8 7 6 6 6 8 8 6 5 4 3 4 5 6 5 6 6 5 4 5 5 5 5 5 6 6 4 4 5 7 8 7 9 11 9 8 10
8 8 4 -2 -0 7 8 7 7 6 9 11 10 7 5 6 6 7 7 6 5 4 8 4 4 6 7 6 5 10 9 5 7 9 5 5 8 6 7 6 6 7 6 5 5 6 6 6 6 6 6 6 7 8 9 9 8 8 8 8 9 10 7 6 6 7 8 6 4 3 3 3 5 6 6 6 6 4 4 4 5 7 7 6 6 6 6 7 8 8 8 7 9 12 11 10 11
8 7 -4 -10 10 17 8 10 9 7 7 6 7 7 6 3 5 8 3 7 6 2 8 4 4 7 7 7 6 7 7 7 10 11 4 5 9 5 6 5 6 6 5 6 5 7 7 7 7 7 7 8 9 8 8 8 9 9 7 7 9 11 8 6 6 6 6 6 5 4 3 3 5 6 6 6 6 5 2 3 5 8 8 7 7 8 8 9 9 8 8 8 9 11 12 11 11
9 8 1 -3 13 17 8 6 5 8 7 5 5 5 6 3 6 8 2 9 7 1 7 5 5 7 7 7 8 7 5 8 9 11 8 6 10 7 6 6 5 5 5 6 6 7 7 7 8 8 8 8 9 7 6 8 9 9 6 4 8 11 9 7 7 6 6 5 4 4 4 4 6 6 7 6 6 4 2 4 7 7 7 9 9 10 8 8 9 8 7 9 11 12 13 11 10
7 9 7 3 10 16 12 4 5 7 6 8 6 5 8 7 6 6 4 7 8 5 6 6 7 8 9 7 10 10 6 9 9 10 9 6 8 7 6 5 5 6 6 7 8 8 7 8 8 8 7 7 9 7 6 6 8 10 8 4 7 11 11 9 8 8 6 6 6 6 6 6 7 6 6 6 6 5 3 6 8 7 8 9 8 9 9 8 9 9 8 9 12 12 13 11 9
3 5 1 3 11 13 13 7 8 7 5 8 5 6 10 7 2 5 7 3 7 5 2 6 7 7 8 7 10 10 8 11 8 7 8 6 6 5 4 4 4 6 6 7 8 7 7 7 7 7 7 7 8 8 8 9 9 11 12 9 8 12 14 11 8 9 7 7 6 6 6 7 9 8 6 5 5 4 4 6 7 7 8 8 8 9 9 10 11 11 10 10 12 12 12 10 9
4 4 5 17 16 8 13 11 6 5 8 7 4 6 6 6 3 7 8 1 5 3 1 7 7 9 8 6 10 9 8 11 8 8 8 4 5 5 4 4 5 6 7 7 6 6 6 6 6 7 6 7 7 8 9 11 11 10 11 11 11 14 15 15 11 10 8 7 7 6 5 7 9 8 7 6 5 4 4 6 7 7 8 9 9 10 11 12 13 13 11 10 10 9 10 10 9
2 2 9 18 17 9 12 11 6 5 9 8 3 5 5 5 6 6 5 3 5 3 4 8 9 12 7 4 9 8 9 11 8 8 7 6 5 5 5 5 6 6 7 6 5 5 5 6 5 6 6 7 6 7 8 9 10 8 9 9 11 14 16 15 12 10 9 7 7 7 6 8 8 6 6 6 6 6 5 6 7 8 8 9 10 12 14 14 13 12 11 10 8 8 9 9 9
-3 3 8 11 14 10 9 9 9 6 7 8 3 6 9 4 4 5 4 8 5 1 5 8 12 10 5 9 13 10 9 11 8 6 6 6 5 4 5 6 7 6 6 5 4 5 5 4 3 5 6 7 6 6 8 9 9 8 8 9 9 11 15 15 10 8 9 7 8 8 7 7 8 7 6 6 6 6 6 7 8 9 9 10 11 11 13 14 11 10 11 10 8 8 9 9 9
-1 6 8 19 17 4 8 10 7 7 6 7 7 6 6 4 4 3 4 9 3 0 5 7 11 7 5 11 11 8 7 9 8 6 6 6 5 6 6 6 6 5 5 4 4 6 5 3 4 7 7 6 6 6 7 8 9 8 8 10 9 10 12 13 11 8 9 9 9 10 9 8 9 7 6 7 6 5 6 8 9 9 9 9 9 10 10 11 9 8 9 9 8 7 8 8 8
5 7 6 26 17 3 12 11 6 6 5 8 13 5 -1 6 9 3 2 5 3 3 7 7 10 7 7 7 5 9 9 8 8 7 6 6 5 5 6 5 5 5 5 4 4 5 4 4 5 6 6 7 7 7 7 7 8 8 8 9 9 10 11 12 11 9 9 10 11 11 9 9 9 6 6 7 4 5 7 7 9 9 8 7 7 8 7 7 7 6 6 7 6 6 7 7 7
7 6 9 22 10 10 14 5 6 5 3 8 15 8 -1 7 7 3 3 6 7 5 7 7 9 8 8 6 8 12 10 9 9 8 7 7 7 4 5 4 4 6 4 3 5 5 5 7 6 5 6 7 7 8 8 7 7 7 8 9 9 9 11 11 10 9 9 10 12 11 9 9 8 6 6 6 4 6 7 6 10 10 9 8 6 6 6 6 5 5 5 5 5 5 5 5 6
5 6 12 18 7 17 21 6 6 5 6 7 12 10 2 5 4 5 7 7 7 4 5 4 7 8 4 7 12 11 9 10 8 6 6 7 8 6 6 4 4 5 4 5 5 4 4 6 6 7 7 7 8 8 9 8 7 9 9 9 9 9 9 10 9 9 9 10 12 10 8 8 7 6 6 6 6 7 6 8 9 8 9 8 5 5 5 5 4 4 4 4 4 4 4 4 5
4 10 7 12 7 13 20 10 6 6 8 7 7 7 2 5 7 8 5 4 6 3 2 3 7 9 6 12 14 10 8 7 7 6 4 6 8 7 5 3 3 4 5 6 5 3 5 6 5 5 6 7 7 7 8 9 8 9 10 11 9 8 8 9 9 8 8 9 9 8 8 8 6 6 6 6 6 6 6 8 9 7 9 9 6 4 4 5 4 3 3 4 4 4 3 4 5
3 12 3 5 7 7 15 13 8 8 8 5 3 5 5 8 9 6 2 3 6 2 2 4 9 10 7 12 12 11 10 4 7 8 5 6 8 8 5 3 3 3 4 6 5 6 7 6 4 5 5 5 6 7 8 8 9 8 9 12 10 8 9 9 9 9 7 7 8 8 7 6 6 7 7 6 5 6 7 9 9 7 9 11 7 4 4 4 3 2 2 2 3 3 3 3 5
2 8 5 3 7 10 16 11 6 8 9 6 3 5 5 10 9 3 5 5 4 4 4 7 12 11 6 8 10 10 11 6 6 8 6 6 7 8 7 4 4 3 3 4 5 6 8 6 4 5 5 5 6 6 8 8 9 10 9 10 9 8 9 9 9 8 7 7 8 8 7 6 8 9 7 6 5 5 7 8 7 7 9 11 9 6 5 5 4 2 2 2 2 3 3 3 5
5 8 8 4 6 10 12 8 6 7 8 6 5 5 3 8 8 3 6 2 4 8 5 6 10 8 4 6 8 8 10 8 7 7 5 6 8 8 6 4 4 5 4 4 4 5 7 6 4 6 5 4 5 5 7 8 8 8 9 8 7 8 8 9 9 9 8 7 8 9 8 7 7 7 6 6 6 5 6 6 7 7 7 7 7 6 6 6 4 4 4 4 4 5 5 4 4
6 4 10 5 4 7 6 6 9 7 5 6 7 8 3 4 7 5 5 3 9 11 3 6 10 7 6 7 7 7 9 7 6 6 5 6 8 8 5 3 3 4 5 5 4 6 7 5 4 7 5 4 6 6 6 6 7 7 8 10 9 10 10 10 10 9 8 8 9 9 8 8 7 5 5 6 6 6 6 6 7 6 5 5 5 5 6 5 5 6 6 6 7 7 6 6 5
2 -1 10 4 2 8 6 6 10 7 5 6 8 9 4 3 8 6 3 6 13 10 1 5 11 8 6 7 9 8 7 7 6 6 6 6 8 8 5 3 3 3 5 5 5 6 7 6 6 7 5 4 6 6 6 6 6 6 7 10 9 11 11 9 11 9 8 9 9 9 9 9 7 5 5 5 5 6 6 7 7 7 7 7 8 8 8 8 9 8 7 8 10 10 10 11 10
1 -1 8 4 2 8 5 5 9 7 6 7 8 7 5 5 7 6 4 6 10 7 1 4 10 9 7 6 7 8 8 7 6 6 7 8 8 7 5 3 3 3 5 6 7 7 6 5 7 7 5 5 5 5 7 7 7 7 8 9 8 11 10 5 8 12 11 10 9 9 9 10 8 6 6 6 6 6 7 9 9 9 9 10 11 11 9 8 9 9 10 9 9 10 11 13 13
4 -0 5 5 2 7 5 4 8 7 6 9 7 4 7 8 5 6 6 6 10 7 0 5 10 10 9 7 5 7 9 8 6 5 6 8 8 7 5 4 3 3 5 7 8 7 6 6 6 6 6 5 5 5 6 7 7 7 8 9 7 8 8 5 7 12 12 10 9 8 8 9 8 7 6 6 6 6 8 9 10 11 10 10 10 9 9 9 8 8 9 8 6 7 8 9 10
5 1 7 8 2 9 9 6 8 6 7 10 9 5 5 8 7 6 6 7 8 3 1 6 8 9 10 7 6 8 9 7 6 5 5 7 8 7 5 4 3 4 4 6 8 8 7 6 6 6 6 6 5 4 6 6 6 5 7 8 7 6 6 7 8 9 9 9 10 11 9 8 8 7 6 6 6 6 8 7 9 11 10 10 9 8 8 9 9 9 10 8 8 9 7 7 9
5 1 8 8 2 8 7 4 4 3 7 9 9 7 4 9 10 3 1 8 6 1 5 8 3 7 11 7 6 8 8 6 6 6 4 6 7 7 6 4 4 4 4 7 7 8 8 6 6 6 6 7 6 5 6 6 6 6 7 7 6 7 8 8 11 10 10 9 10 11 9 8 9 6 5 8 8 8 10 8 9 10 9 9 8 8 8 8 10 10 12 11 10 11 9 8 9
5 0 4 7 3 4 4 4 4 2 4 8 10 7 5 9 10 4 2 8 7 4 7 7 4 7 11 8 4 8 8 5 7 6 4 5 6 6 6 4 4 3 4 7 7 8 9 7 7 7 6 6 6 6 6 6 7 7 6 6 7 10 11 9 12 12 10 10 11 10 9 9 8 6 6 8 9 10 11 9 8 9 9 9 9 10 11 11 12 12 14 15 14 13 11 10 9
7 2 1 5 5 6 9 7 5 3 -1 11 20 9 3 6 9 8 7 9 6 4 5 6 6 5 11 10 3 7 9 6 7 6 4 5 6 5 5 4 4 3 5 7 7 9 9 7 8 8 5 5 6 6 6 6 7 7 5 6 9 10 10 10 13 12 10 10 10 9 9 10 7 6 9 10 9 9 9 8 7 9 8 8 10 12 13 15 15 15 16 16 14 13 12 12 13
5 6 3 3 4 5 8 3 3 7 0 10 22 12 6 6 11 8 5 12 7 2 4 7 7 3 10 13 4 5 8 7 7 6 6 5 5 4 4 4 3 3 5 7 6 8 9 8 6 8 7 6 7 6 5 7 7 6 4 5 7 9 10 10 12 12 10 9 9 8 8 10 8 7 10 11 10 7 6 8 7 7 7 7 9 10 12 13 15 16 15 14 13 13 14 14 14
3 5 4 3 6 3 3 3 3 7 4 6 10 11 9 6 13 7 3 14 6 1 5 5 9 5 8 12 6 4 7 6 7 8 7 4 4 4 3 4 4 4 4 6 8 8 9 9 4 5 7 7 7 6 6 8 7 7 6 4 5 9 12 10 10 12 12 10 9 8 7 9 11 9 10 9 8 5 6 9 7 7 7 7 7 7 10 10 10 14 14 14 14 13 14 13 12
2 6 5 1 7 5 3 6 2 2 6 7 4 5 7 8 14 6 4 13 4 1 5 5 11 5 4 12 8 4 5 7 6 7 8 5 4 3 4 4 3 5 5 6 8 8 8 9 6 3 5 7 7 7 8 7 6 6 6 5 5 8 12 10 9 10 12 12 9 9 8 9 11 11 10 8 7 8 10 11 8 6 7 6 4 4 7 7 6 9 11 12 12 12 12 10 12
0 6 6 -1 4 6 6 8 2 1 5 7 3 2 6 11 12 4 4 10 6 5 4 5 9 6 4 9 12 7 3 6 7 7 7 6 5 3 3 4 4 5 6 7 8 8 8 8 7 5 6 7 8 7 7 7 6 5 4 6 7 8 11 12 11 9 9 11 9 8 7 7 9 10 11 11 10 12 11 10 8 7 7 6 4 4 5 5 5 7 8 8 8 8 10 10 12
4 2 5 2 -1 -1 10 19 11 4 3 6 7 2 5 10 7 5 7 7 5 6 6 6 5 7 7 5 11 12 5 5 7 8 7 5 5 4 3 3 5 5 5 7 8 8 7 7 8 8 7 7 7 7 6 6 5 5 4 5 7 7 8 10 11 11 10 11 9 7 6 5 6 7 8 9 10 10 8 8 7 6 8 6 4 4 4 5 6 7 7 8 9 8 10 11 10
9 3 3 8 5 -2 5 9 5 2 -3 3 9 2 1 7 7 10 11 7 7 7 5 6 4 5 8 4 7 10 8 6 5 9 8 6 5 3 4 4 4 6 6 8 8 8 6 6 8 8 8 6 6 7 7 6 5 4 4 3 5 5 6 8 10 12 12 12 10 8 6 5 5 6 6 7 7 8 8 8 8 6 7 7 6 5 4 6 7 7 7 9 12 10 10 10 8
9 5 -0 7 9 4 3 -4 -0 10 3 -2 4 3 1 4 10 16 12 5 8 7 3 5 6 7 8 5 5 7 10 8 4 9 7 5 7 4 4 4 5 6 7 9 7 8 7 5 8 8 7 7 5 7 8 7 6 5 4 4 4 4 5 8 10 12 12 13 12 11 9 5 5 7 8 8 7 7 6 6 6 6 6 6 7 6 5 7 7 7 8 9 11 10 9 9 10
6 9 5 6 6 3 6 1 3 14 12 4 2 3 4 1 5 14 11 5 7 5 4 6 6 9 9 6 6 5 10 10 4 7 8 6 7 5 4 3 5 6 6 9 7 7 7 5 8 9 8 8 5 5 8 8 8 8 7 6 6 6 6 6 9 11 11 12 13 13 11 7 4 5 8 10 9 8 7 6 6 7 7 7 7 7 6 8 7 7 8 9 10 9 9 9 9
2 5 4 9 15 9 7 3 -0 7 10 11 7 3 7 5 5 16 11 5 6 4 8 10 4 6 8 7 9 7 8 12 8 6 7 7 7 5 5 4 4 6 6 7 7 7 8 7 7 9 9 8 5 4 6 6 8 8 7 6 5 6 6 6 8 9 9 11 11 12 12 9 5 3 6 9 8 8 8 7 7 6 6 7 7 6 6 7 7 9 9 9 9 8 9 9 9
0 -1 1 5 11 9 10 6 1 4 4 10 12 3 6 4 5 18 18 9 3 4 12 12 7 8 7 6 9 9 8 10 10 7 5 6 8 6 5 6 4 5 6 6 7 7 7 8 7 9 10 8 5 4 5 5 6 6 5 4 4 6 5 5 7 8 8 10 11 11 11 10 7 4 4 7 8 7 7 7 6 6 6 6 5 5 6 6 6 8 9 9 9 9 9 8 9
2 -1 1 1 5 8 10 8 9 9 0 7 14 7 5 2 0 6 12 14 6 7 12 8 11 8 0 4 8 7 8 9 10 8 6 5 7 8 6 6 5 4 6 6 7 8 8 8 7 8 9 8 6 4 4 4 4 6 5 4 5 6 4 5 7 7 7 11 12 11 11 10 8 5 4 6 8 6 6 6 6 6 6 5 5 5 5 6 7 8 8 8 8 9 9 8 8
8 6 0 -4 6 12 5 4 14 18 10 10 12 9 5 -1 3 3 2 9 7 9 13 10 16 7 -5 7 10 8 9 7 9 7 6 6 5 7 7 5 6 5 5 5 6 7 8 9 9 8 9 8 6 5 5 3 4 4 4 5 6 6 5 5 8 7 6 9 13 12 10 10 8 6 5 5 7 7 6 6 6 6 6 5 5 5 5 5 7 8 8 9 9 9 8 8 8
8 6 -4 -9 2 10 10 12 10 8 10 12 11 12 10 0 4 6 2 7 8 12 18 13 11 4 5 12 3 6 12 7 9 8 5 6 5 6 6 5 6 5 5 4 6 7 7 9 10 8 8 8 6 5 6 4 4 5 3 4 5 6 5 5 7 7 6 8 11 12 11 10 9 7 6 5 5 6 6 6 6 6 6 5 5 5 5 5 6 7 7 9 9 9 9 8 8
6 3 -6 -8 3 6 11 15 9 12 15 8 5 8 10 9 7 4 1 3 6 17 25 13 4 7 14 10 -4 2 12 9 10 9 9 9 5 4 5 5 4 4 5 4 4 6 7 8 10 9 7 7 7 6 7 6 5 6 4 3 4 5 5 4 6 7 6 8 9 10 11 11 10 9 7 6 5 5 6 6 6 6 6 6 6 6 6 6 6 7 7 8 8 8 8 7 7
3 6 -2 -7 0 -1 5 10 3 12 11 -4 2 8 6 13 13 6 5 1 -2 9 19 10 6 16 13 1 1 6 6 10 11 8 11 13 9 4 3 5 4 3 4 3 4 5 6 8 8 10 8 7 8 7 8 7 5 7 4 4 6 6 6 5 7 7 6 8 8 8 9 10 11 11 9 7 6 5 5 6 7 7 7 7 7 7 7 7 7 7 7 7 7 7 7 5 6
3 3 -1 -2 0 -5 4 13 -0 3 11 8 17 15 3 6 9 7 8 6 2 4 8 6 6 20 18 3 5 7 3 9 11 6 9 13 13 8 3 4 3 3 3 3 4 4 5 7 7 9 8 8 9 8 9 7 6 7 5 4 6 6 7 8 8 8 7 7 7 7 7 9 10 11 11 9 8 7 5 6 6 6 7 7 7 7 7 8 7 6 7 7 6 6 7 6 5
2 4 3 0 -2 -0 9 7 -7 2 14 10 8 6 2 1 3 8 9 7 9 7 5 6 5 10 13 7 7 8 4 6 9 8 6 7 13 13 7 5 2 1 2 2 4 5 5 6 6 7 7 8 9 9 10 8 6 8 6 4 5 5 6 7 7 7 7 6 7 6 5 7 8 9 11 11 10 9 7 6 5 6 6 6 7 6 6 6 6 6 6 6 6 6 6 6 6
-2 3 14 11 -5 0 19 10 -5 2 7 1 -1 4 11 8 2 7 11 13 18 18 15 15 13 6 2 5 11 12 7 6 8 8 8 6 8 13 12 9 5 2 2 1 3 5 5 5 5 5 6 8 10 10 10 9 7 6 7 5 5 6 5 7 8 6 5 6 6 5 5 6 7 7 9 10 11 11 10 8 6 6 6 6 6 6 5 5 5 5 5 6 6 6 5 5 6
1 -6 3 14 -1 -14 -2 3 0 1 1 4 4 2 7 10 9 7 5 7 14 21 19 13 13 13 9 7 6 6 8 14 12 6 9 11 6 7 12 13 9 4 2 2 2 4 5 4 4 4 6 7 9 11 11 9 8 6 7 5 4 5 6 5 6 5 6 7 6 5 5 6 6 6 7 7 9 10 10 10 9 7 7 7 7 6 6 6 5 5 5 5 5 6 6 5 5
11 9 3 10 13 -4 -14 -8 3 6 3 6 1 -3 4 6 7 10 8 4 1 5 7 1 2 8 9 10 7 3 9 15 14 6 5 10 10 7 9 14 14 8 5 3 2 3 4 4 4 4 4 6 8 11 11 9 8 7 6 6 4 5 6 5 5 7 9 8 6 6 5 6 6 6 7 7 6 7 9 9 10 9 8 8 8 8 8 7 7 7 6 6 6 7 7 6 6
6 11 12 15 23 16 2 -1 8 12 11 11 2 -1 8 4 0 6 9 4 -3 -3 2 2 5 5 2 7 9 6 8 11 12 10 6 7 10 9 7 12 16 14 11 7 3 3 4 4 4 4 4 6 7 9 11 10 8 7 6 5 5 5 5 5 5 8 9 7 6 6 5 4 5 6 7 7 6 6 7 7 8 9 8 8 8 8 9 9 9 9 8 8 8 8 7 7 7
14 9 9 14 15 11 10 11 8 1 4 14 10 1 -1 -2 3 5 1 3 4 3 5 5 4 6 4 5 8 6 3 7 11 12 10 7 8 7 5 7 11 13 14 14 9 4 4 5 4 4 4 5 7 8 10 11 9 7 6 5 6 6 6 5 6 7 7 7 7 6 5 4 4 5 6 6 7 7 6 6 7 7 7 7 8 7 8 8 8 8 8 9 9 9 8 7 8
20 13 6 3 2 5 8 12 7 -7 6 26 15 -1 -6 -1 12 8 -1 3 1 -3 6 6 -3 5 13 7 8 8 3 6 10 8 9 9 8 7 5 6 8 11 12 14 15 11 6 6 5 3 3 4 6 8 9 11 10 7 6 6 6 7 7 6 5 6 7 7 7 7 6 5 4 4 5 5 7 7 6 6 6 7 7 7 7 7 7 7 7 7 7 7 8 9 9 8 8
18 15 12 -2 -7 5 3 7 11 -1 10 19 -2 -10 -2 6 13 6 2 3 -7 -7 8 11 3 11 22 14 6 4 3 7 7 3 7 10 7 4 3 7 10 9 7 8 13 15 12 8 6 4 3 3 5 7 8 9 9 8 6 6 7 7 8 7 5 5 6 6 7 7 6 6 5 5 5 5 5 5 5 5 6 6 6 6 6 7 7 8 7 7 7 6 7 8 9 9 9
25 24 20 3 -9 -3 -4 5 25 31 26 -0 -17 3 11 5 5 3 8 9 -3 -2 7 12 15 14 12 15 15 6 1 6 8 4 6 11 12 7 5 13 13 6 9 10 7 12 15 12 9 5 2 3 3 5 7 8 8 9 8 7 8 8 7 7 5 4 5 6 6 7 6 5 6 6 6 6 5 5 4 5 6 5 6 6 6 6 6 7 7 8 7 6 6 7 8 9 9
23 19 7 10 11 4 -1 0 9 35 46 6 -15 6 4 -5 3 4 9 7 -2 2 8 15 22 7 -12 -6 9 11 4 4 8 7 6 11 17 14 12 19 12 2 9 12 3 4 12 13 12 9 4 2 3 4 6 7 7 7 8 9 9 9 8 7 7 5 5 6 6 6 6 5 5 5 6 7 6 6 5 6 6 5 6 6 6 6 6 6 6 7 7 6 7 7 7 8 8
13 22 4 9 22 9 3 5 -5 5 27 15 -1 -0 -8 -10 -1 -0 3 3 3 10 11 11 17 9 -4 -3 7 15 12 5 5 6 5 8 12 13 15 13 3 -1 8 12 5 4 9 10 11 12 9 4 3 4 5 6 7 5 6 9 10 10 9 8 8 6 5 5 5 5 5 5 5 5 6 6 6 6 6 6 6 6 6 6 5 6 5 5 5 5 6 5 6 6 7 8 8
-2 20 15 9 12 1 -2 11 10 1 5 9 5 3 3 3 5 5 3 -2 -3 1 1 2 10 11 8 9 14 18 16 8 5 7 4 3 5 8 10 7 4 7 11 15 13 9 7 7 8 11 12 8 4 3 4 4 6 6 5 7 9 11 11 9 8 7 6 5 4 4 5 4 4 4 5 5 5 5 6 6 6 6 7 6 5 6 6 5 5 4 5 4 5 5 5 7 7
-3 8 13 9 6 1 -1 6 6 -1 5 14 8 4 7 4 8 18 21 14 -0 -10 -6 -3 -1 2 3 7 11 14 17 10 5 7 6 4 7 7 6 8 9 11 14 16 10 6 6 6 7 10 12 13 9 5 5 4 4 6 5 5 7 9 11 11 10 9 8 6 5 4 4 4 4 4 4 4 4 4 4 5 5 6 7 7 7 7 7 6 5 5 5 4 4 5 4 5 5
0 4 5 5 10 6 -0 9 6 -15 -7 18 14 7 7 0 5 15 19 26 19 2 1 -2 -8 -4 2 12 15 9 11 13 8 7 6 4 5 6 7 9 8 5 13 18 6 -1 6 7 5 7 9 13 13 9 7 7 5 5 5 5 5 7 10 10 10 11 10 8 6 5 4 4 4 4 4 4 4 4 4 4 4 5 6 7 8 9 9 8 6 5 5 5 4 5 5 4 4
2 5 5 8 24 12 -13 5 21 -9 -13 12 10 9 19 9 1 2 0 11 23 24 20 10 6 6 1 13 24 10 0 8 11 8 4 2 1 3 5 8 9 2 4 19 17 3 3 9 7 4 5 10 14 14 12 7 5 7 7 6 4 5 8 10 10 9 11 11 9 7 6 5 4 4 5 5 4 4 4 4 4 4 5 6 7 8 9 10 9 8 7 6 5 5 5 5 5
Height
5891 5890 5890 5891 5891 5892 5892 5892 5892 5892 5893 5893 5893 5892 5893 5893 5893 5893 5893 5894 5895 5896 5896 5896 5896 5896 5897 5897 5898 5898 5899 5899 5899 5900 5899 5900 5901 5900 5900 5901 5901 5901 5902 5903 5904 5904 5904 5904 5904 5904 5904 5904 5903 5903 5903 5903 5904 5905 5906 5906 5906 5906 5906 5906 5907 5908 5910 5912 5913 5914 5914 5914 5914 5914 5915 5915 5915 5916 5916 5916 5916 5916 5916 5917 5917 5917 5917 5917 5917 5918 5919 5919 5919 5919 5919 5920 5922
5891 5891 5891 5891 5891 5892 5892 5892 5892 5893 5893 5893 5893 5893 5893 5893 5894 5894 5894 5895 5896 5897 5897 5897 5897 5897 5898 5898 5899 5899 5900 5900 5900 5900 5900 5901 5902 5902 5901 5902 5902 5902 5903 5904 5905 5905 5905 5905 5906 5905 5905 5905 5904 5904 5904 5905 5906 5906 5907 5907 5907 5907 5907 5907 5907 5908 5910 5911 5913 5913 5913 5913 5914 5915 5915 5916 5916 5917 5917 5917 5917 5917 5917 5917 5917 5917 5917 5917 5918 5918 5919 5920 5920 5920 5920 5920 5922
5891 5891 5891 5891 5891 5891 5892 5892 5893 5894 5894 5893 5893 5894 5893 5894 5896 5894 5894 5896 5897 5897 5898 5898 5898 5898 5898 5899 5900 5900 5900 5901 5900 5900 5901 5902 5903 5903 5903 5903 5903 5903 5904 5905 5906 5906 5906 5906 5907 5907 5906 5905 5905 5906 5906 5907 5907 5907 5907 5907 5907 5908 5908 5908 5908 5909 5910 5911 5912 5913 5912 5913 5914 5915 5916 5916 5917 5918 5918 5918 5918 5918 5918 5918 5918 5917 5917 5918 5918 5918 5919 5920 5920 5920 5920 5921 5922
5891 5891 5891 5890 5890 5890 5891 5892 5893 5894 5894 5894 5894 5894 5894 5894 5896 5894 5895 5897 5898 5898 5899 5899 5899 5899 5899 5899 5900 5900 5901 5901 5901 5900 5902 5903 5903 5904 5904 5904 5904 5905 5906 5906 5906 5907 5907 5908 5908 5908 5907 5907 5907 5907 5908 5908 5907 5907 5907 5907 5908 5908 5908 5908 5909 5910 5911 5911 5912 5912 5912 5913 5914 5915 5916 5917 5917 5918 5918 5919 5919 5919 5919 5918 5918 5918 5918 5918 5918 5919 5919 5920 5920 5920 5920 5921 5923
5891 5891 5890 5890 5890 5890 5891 5892 5893 5894 5894 5894 5895 5895 5894 5895 5895 5895 5896 5898 5899 5899 5899 5900 5900 5900 5899 5899 5900 5900 5901 5902 5902 5900 5902 5905 5904 5904 5905 5905 5905 5906 5907 5907 5907 5908 5908 5909 5909 5909 5909 5909 5909 5909 5909 5908 5908 5908 5908 5908 5908 5908 5908 5909 5909 5910 5911 5912 5912 5912 5912 5914 5915 5915 5916 5917 5918 5918 5919 5919 5919 5919 5919 5919 5919 5919 5918 5918 5919 5919 5920 5920 5921 5921 5921 5921 5923
5892 5891 5891 5890 5890 5890 5891 5892 5893 5894 5895 5895 5896 5896 5896 5897 5897 5895 5896 5898 5899 5900 5900 5900 5900 5900 5900 5900 5900 5900 5901 5902 5903 5901 5902 5905 5905 5905 5905 5905 5906 5907 5908 5908 5908 5909 5910 5910 5911 5911 5910 5910 5909 5910 5910 5910 5909 5909 5909 5908 5908 5908 5908 5908 5909 5910 5911 5912 5912 5912 5913 5914 5915 5916 5916 5917 5918 5919 5919 5919 5919 5919 5919 5919 5919 5919 5919 5919 5919 5920 5920 5921 5921 5921 5921 5921 5923
5893 5892 5892 5891 5891 5891 5892 5892 5892 5894 5895 5897 5896 5896 5898 5899 5897 5896 5896 5897 5899 5900 5900 5900 5899 5900 5900 5901 5901 5901 5902 5902 5903 5903 5903 5905 5906 5906 5906 5906 5907 5908 5909 5909 5910 5910 5911 5911 5911 5911 5910 5910 5910 5911 5910 5910 5909 5909 5908 5908 5907 5907 5907 5908 5909 5910 5912 5913 5913 5913 5913 5914 5915 5916 5916 5917 5918 5919 5920 5920 5920 5919 5919 5919 5919 5919 5919 5919 5920 5921 5921 5922 5922 5921 5921 5922 5923
5893 5893 5893 5892 5892 5892 5893 5894 5893 5894 5895 5898 5897 5896 5898 5899 5897 5896 5897 5898 5899 5900 5900 5899 5899 5900 5901 5901 5901 5902 5902 5901 5902 5904 5904 5906 5907 5907 5907 5907 5908 5909 5910 5910 5911 5912 5912 5911 5911 5911 5911 5911 5911 5911 5910 5910 5909 5908 5907 5907 5907 5907 5907 5908 5909 5911 5913 5914 5913 5913 5914 5914 5915 5916 5917 5917 5918 5919 5920 5920 5920 5920 5919 5919 5919 5920 5920 5920 5921 5921 5921 5922 5922 5922 5922 5922 5923
5893 5894 5893 5892 5892 5892 5894 5895 5895 5897 5897 5897 5896 5896 5898 5900 5900 5899 5899 5899 5899 5900 5900 5900 5900 5900 5901 5902 5902 5903 5903 5902 5903 5904 5905 5907 5908 5908 5908 5908 5908 5910 5911 5912 5912 5912 5912 5912 5912 5912 5912 5912 5912 5911 5910 5909 5908 5907 5907 5907 5907 5908 5908 5908 5910 5912 5914 5915 5914 5914 5914 5915 5915 5916 5917 5917 5918 5919 5920 5920 5920 5920 5920 5919 5919 5920 5920 5921 5921 5921 5922 5922 5922 5923 5923 5923 5924
5894 5894 5893 5893 5892 5892 5895 5895 5896 5898 5897 5896 5896 5896 5899 5900 5902 5901 5900 5900 5900 5901 5901 5901 5901 5901 5902 5903 5902 5903 5903 5903 5904 5906 5907 5907 5908 5908 5908 5908 5909 5911 5912 5912 5913 5913 5913 5913 5914 5914 5914 5913 5912 5911 5909 5909 5908 5908 5908 5909 5908 5908 5908 5909 5911 5913 5915 5916 5915 5915 5915 5915 5916 5916 5917 5918 5918 5919 5920 5920 5920 5920 5920 5919 5919 5920 5921 5921 5922 5922 5922 5923 5923 5924 5924 5924 5925
5895 5894 5894 5893 5893 5894 5895 5896 5896 5898 5897 5896 5896 5899 5901 5900 5900 5901 5901 5901 5902 5902 5902 5902 5902 5902 5903 5903 5903 5903 5904 5904 5905 5906 5908 5908 5909 5908 5908 5910 5911 5912 5912 5913 5913 5914 5914 5915 5915 5915 5914 5913 5912 5911 5910 5910 5910 5910 5910 5910 5910 5909 5909 5910 5912 5914 5916 5916 5916 5915 5915 5915 5916 5917 5918 5918 5919 5919 5920 5920 5920 5920 5920 5920 5920 5920 5921 5922 5923 5923 5923 5924 5924 5925 5925 5925 5926
5895 5894 5894 5894 5894 5894 5896 5897 5896 5897 5898 5897 5897 5901 5902 5899 5900 5902 5902 5902 5903 5903 5902 5902 5902 5902 5903 5904 5904 5905 5904 5905 5905 5907 5908 5909 5909 5909 5909 5911 5912 5913 5914 5914 5914 5915 5915 5916 5915 5914 5914 5913 5913 5913 5913 5913 5912 5912 5911 5911 5911 5911 5911 5911 5912 5914 5916 5917 5916 5916 5916 5916 5917 5918 5919 5919 5920 5920 5920 5920 5920 5920 5920 5921 5921 5921 5922 5923 5924 5924 5924 5925 5926 5926 5927 5927 5927
5895 5895 5895 5894 5894 5894 5896 5897 5896 5897 5898 5897 5898 5901 5902 5899 5900 5903 5903 5902 5903 5903 5903 5902 5903 5903 5904 5905 5905 5906 5905 5905 5906 5907 5909 5910 5910 5910 5910 5912 5913 5914 5915 5915 5915 5915 5915 5915 5915 5915 5915 5915 5915 5915 5915 5914 5913 5913 5913 5913 5913 5913 5913 5913 5913 5914 5915 5916 5917 5917 5917 5918 5918 5919 5919 5920 5921 5921 5921 5921 5921 5921 5921 5922 5922 5923 5924 5924 5925 5925 5926 5926 5927 5928 5928 5929 5929
5897 5897 5896 5895 5895 5895 5895 5896 5897 5897 5898 5897 5898 5900 5901 5900 5902 5903 5903 5903 5904 5904 5904 5903 5903 5904 5905 5906 5906 5907 5906 5906 5907 5908 5910 5911 5911 5911 5911 5912 5914 5915 5916 5916 5915 5915 5915 5916 5916 5917 5917 5917 5917 5916 5916 5915 5915 5915 5914 5915 5915 5914 5914 5914 5913 5914 5915 5916 5917 5918 5919 5919 5919 5920 5920 5921 5922 5922 5922 5921 5921 5922 5922 5923 5924 5924 5925 5926 5926 5927 5927 5928 5928 5928 5929 5930 5930
5898 5898 5898 5896 5895 5896 5896 5896 5898 5899 5899 5899 5900 5901 5901 5901 5903 5905 5904 5903 5905 5905 5904 5903 5904 5905 5906 5906 5907 5907 5907 5907 5908 5908 5910 5911 5912 5912 5912 5913 5915 5916 5916 5916 5916 5916 5917 5918 5918 5919 5919 5918 5918 5917 5917 5916 5916 5916 5916 5916 5916 5915 5915 5914 5914 5915 5915 5916 5918 5919 5920 5920 5920 5921 5922 5922 5922 5922 5922 5922 5922 5922 5923 5924 5925 5925 5926 5927 5927 5928 5929 5929 5929 5929 5930 5931 5932
5897 5897 5898 5897 5896 5896 5897 5897 5898 5900 5900 5900 5901 5902 5902 5902 5904 5905 5906 5905 5906 5906 5905 5904 5904 5905 5906 5907 5907 5907 5907 5908 5909 5909 5911 5912 5913 5913 5914 5914 5915 5916 5917 5918 5918 5918 5919 5919 5920 5920 5920 5919 5919 5918 5918 5918 5918 5918 5918 5917 5917 5916 5915 5915 5915 5916 5916 5917 5918 5919 5921 5921 5921 5922 5923 5923 5923 5923 5923 5923 5923 5923 5924 5925 5926 5926 5927 5928 5929 5930 5930 5930 5930 5931 5931 5932 5933
5897 5897 5898 5898 5897 5897 5898 5899 5898 5900 5901 5901 5902 5902 5902 5904 5904 5906 5907 5907 5906 5906 5906 5905 5905 5905 5906 5907 5908 5908 5908 5908 5910 5911 5912 5913 5914 5915 5915 5915 5916 5917 5918 5919 5919 5919 5920 5920 5920 5921 5921 5921 5920 5920 5920 5920 5920 5920 5919 5919 5918 5917 5917 5917 5917 5917 5918 5918 5919 5920 5922 5923 5923 5923 5924 5924 5924 5924 5924 5924 5924 5925 5925 5926 5927 5928 5928 5929 5930 5931 5931 5931 5932 5932 5933 5933 5934
5898 5898 5898 5897 5898 5898 5899 5900 5900 5901 5901 5902 5903 5903 5905 5905 5905 5906 5907 5907 5907 5907 5907 5906 5906 5907 5906 5907 5909 5910 5910 5910 5911 5912 5913 5914 5915 5916 5917 5917 5918 5918 5919 5920 5920 5921 5921 5921 5921 5921 5921 5922 5922 5922 5922 5922 5921 5921 5921 5920 5919 5919 5918 5918 5918 5919 5919 5920 5920 5921 5923 5924 5924 5924 5925 5925 5925 5925 5925 5925 5926 5926 5927 5927 5928 5929 5930 5930 5931 5931 5932 5932 5933 5933 5934 5934 5935
5899 5899 5898 5897 5898 5899 5899 5901 5901 5902 5902 5903 5904 5905 5907 5906 5906 5908 5908 5908 5908 5907 5908 5908 5908 5908 5908 5908 5908 5910 5911 5911 5912 5913 5914 5915 5916 5917 5918 5918 5919 5920 5921 5921 5921 5922 5922 5922 5922 5922 5922 5923 5923 5923 5923 5922 5922 5922 5922 5921 5920 5920 5920 5920 5920 5920 5920 5921 5922 5922 5923 5924 5925 5926 5926 5926 5926 5926 5926 5927 5927 5928 5928 5929 5929 5930 5931 5931 5932 5932 5932 5933 5934 5934 5935 5935 5935
5900 5900 5898 5897 5899 5899 5899 5900 5901 5903 5904 5904 5905 5907 5908 5907 5907 5909 5909 5908 5909 5908 5908 5908 5909 5909 5909 5909 5909 5909 5910 5911 5912 5913 5914 5915 5916 5918 5919 5919 5920 5921 5922 5922 5922 5922 5923 5923 5923 5922 5923 5923 5924 5924 5923 5923 5923 5923 5923 5923 5922 5921 5921 5921 5921 5922 5922 5922 5923 5923 5924 5925 5926 5927 5927 5927 5927 5927 5928 5928 5929 5929 5929 5930 5931 5931 5932 5932 5933 5933 5933 5933 5934 5935 5936 5936 5936
5900 5900 5898 5897 5899 5900 5899 5899 5900 5902 5904 5905 5906 5907 5908 5907 5909 5909 5909 5909 5910 5910 5909 5909 5910 5910 5910 5910 5910 5910 5911 5912 5912 5913 5914 5915 5917 5918 5919 5920 5921 5922 5923 5923 5923 5923 5923 5924 5923 5923 5923 5923 5924 5924 5925 5924 5924 5924 5925 5924 5924 5923 5922 5923 5923 5924 5924 5924 5924 5925 5925 5926 5927 5927 5928 5928 5929 5929 5929 5930 5931 5931 5931 5931 5932 5932 5932 5933 5934 5934 5934 5934 5934 5935 5936 5937 5937
5900 5901 5900 5900 5900 5900 5900 5900 5900 5902 5903 5904 5905 5906 5906 5907 5909 5909 5909 5910 5910 5910 5910 5910 5911 5911 5911 5912 5911 5912 5912 5913 5913 5914 5915 5916 5918 5919 5920 5921 5922 5923 5924 5924 5924 5924 5924 5925 5924 5924 5924 5924 5924 5925 5926 5926 5926 5926 5926 5926 5925 5925 5924 5924 5925 5925 5925 5925 5926 5926 5927 5927 5928 5928 5929 5929 5930 5930 5930 5931 5932 5932 5932 5932 5933 5933 5933 5934 5934 5934 5934 5934 5935 5935 5937 5938 5938
5899 5900 5902 5902 5901 5901 5901 5901 5901 5902 5902 5903 5904 5904 5905 5907 5909 5908 5909 5911 5910 5910 5911 5911 5912 5912 5912 5913 5913 5913 5914 5914 5914 5915 5915 5917 5918 5920 5921 5922 5923 5924 5925 5925 5925 5925 5925 5925 5925 5924 5924 5924 5925 5926 5927 5927 5927 5927 5927 5927 5927 5926 5926 5926 5926 5926 5927 5927 5927 5927 5928 5928 5929 5930 5930 5931 5931 5931 5931 5932 5933 5933 5933 5933 5934 5934 5934 5935 5935 5934 5935 5935 5936 5936 5937 5938 5939
5898 5899 5901 5902 5902 5901 5901 5902 5903 5903 5903 5904 5905 5905 5905 5907 5908 5908 5909 5911 5910 5910 5911 5912 5912 5912 5913 5914 5914 5914 5915 5916 5916 5916 5916 5917 5919 5921 5922 5923 5923 5924 5926 5926 5927 5926 5926 5926 5926 5925 5925 5925 5926 5927 5928 5928 5928 5929 5929 5928 5928 5928 5928 5928 5928 5927 5927 5928 5928 5928 5929 5929 5930 5931 5932 5932 5932 5932 5932 5933 5934 5935 5935 5934 5935 5935 5935 5935 5935 5935 5935 5936 5936 5937 5938 5939 5940
5897 5899 5900 5901 5901 5901 5902 5904 5905 5904 5904 5905 5907 5907 5906 5907 5909 5908 5909 5910 5910 5911 5912 5913 5913 5913 5913 5914 5915 5915 5916 5917 5918 5918 5918 5918 5919 5921 5923 5923 5924 5925 5926 5927 5928 5928 5927 5927 5927 5927 5927 5927 5927 5928 5929 5929 5930 5930 5930 5930 5930 5930 5930 5930 5929 5929 5928 5929 5929 5930 5930 5931 5932 5933 5934 5933 5933 5933 5934 5934 5935 5935 5935 5935 5935 5935 5935 5935 5936 5936 5936 5937 5937 5938 5939 5940 5941
5896 5898 5900 5900 5901 5902 5903 5905 5906 5905 5904 5906 5908 5908 5907 5909 5911 5911 5910 5909 5910 5911 5913 5913 5913 5914 5914 5915 5916 5916 5917 5918 5919 5919 5919 5920 5920 5922 5923 5924 5925 5925 5927 5928 5929 5929 5929 5929 5929 5928 5928 5928 5928 5929 5929 5930 5931 5932 5932 5932 5932 5932 5932 5932 5931 5930 5930 5930 5931 5931 5932 5933 5934 5935 5935 5934 5934 5935 5935 5936 5936 5937 5937 5937 5937 5937 5936 5937 5937 5937 5937 5938 5939 5940 5941 5941 5942
5896 5897 5899 5900 5900 5902 5903 5904 5904 5904 5906 5907 5908 5908 5908 5909 5912 5913 5912 5910 5911 5912 5913 5913 5914 5914 5915 5915 5916 5917 5918 5919 5920 5920 5921 5921 5922 5922 5924 5925 5926 5926 5927 5929 5930 5930 5930 5930 5930 5930 5930 5930 5930 5930 5931 5931 5932 5933 5933 5933 5933 5933 5933 5933 5933 5932 5932 5932 5933 5933 5934 5935 5936 5936 5936 5936 5936 5937 5937 5937 5938 5938 5939 5939 5939 5939 5939 5939 5939 5939 5939 5940 5940 5941 5942 5943 5943
5896 5897 5898 5898 5900 5902 5904 5903 5903 5903 5906 5907 5907 5907 5908 5909 5911 5913 5912 5912 5913 5913 5912 5913 5914 5915 5916 5916 5917 5918 5919 5919 5920 5921 5922 5923 5923 5923 5925 5926 5927 5928 5928 5930 5930 5931 5931 5931 5931 5931 5931 5931 5932 5932 5932 5932 5933 5933 5934 5934 5934 5934 5935 5935 5934 5934 5934 5934 5934 5935 5936 5936 5937 5937 5937 5938 5938 5938 5939 5939 5939 5940 5940 5941 5941 5941 5941 5941 5941 5941 5941 5942 5942 5943 5944 5945 5945
5895 5895 5896 5897 5898 5901 5903 5902 5902 5903 5906 5907 5907 5908 5908 5907 5910 5911 5912 5912 5912 5912 5912 5913 5914 5915 5916 5917 5918 5918 5919 5920 5921 5922 5923 5924 5924 5925 5925 5926 5928 5928 5929 5930 5931 5931 5932 5932 5933 5933 5933 5933 5933 5933 5933 5933 5934 5934 5935 5935 5935 5935 5936 5936 5935 5936 5936 5936 5936 5937 5938 5938 5938 5938 5939 5939 5940 5940 5940 5940 5941 5941 5942 5942 5943 5943 5943 5943 5943 5943 5944 5944 5945 5946 5947 5947 5947
5893 5894 5895 5895 5896 5899 5901 5900 5902 5903 5905 5907 5907 5908 5907 5907 5910 5911 5912 5912 5911 5911 5912 5913 5915 5916 5916 5917 5918 5919 5920 5920 5921 5923 5924 5925 5925 5926 5926 5927 5928 5929 5930 5931 5932 5932 5933 5933 5934 5935 5935 5936 5936 5935 5934 5935 5935 5935 5935 5935 5935 5936 5936 5936 5936 5937 5938 5938 5938 5939 5940 5940 5939 5940 5940 5941 5941 5942 5942 5942 5943 5943 5944 5945 5945 5945 5945 5945 5945 5946 5947 5948 5949 5949 5949 5949 5950
5892 5893 5894 5894 5894 5897 5900 5899 5900 5902 5904 5905 5907 5907 5907 5908 5911 5912 5911 5912 5911 5911 5912 5913 5915 5916 5917 5917 5918 5919 5920 5921 5922 5923 5924 5925 5926 5927 5927 5927 5928 5929 5930 5931 5933 5933 5934 5934 5934 5935 5937 5938 5937 5937 5936 5936 5936 5936 5936 5936 5936 5936 5937 5937 5938 5939 5940 5941 5941 5941 5941 5942 5942 5942 5942 5943 5943 5944 5944 5944 5945 5946 5946 5947 5947 5947 5947 5948 5948 5949 5950 5951 5951 5950 5950 5951 5953
5891 5893 5894 5894 5893 5895 5898 5899 5898 5900 5903 5904 5905 5906 5907 5908 5910 5910 5910 5911 5910 5910 5912 5914 5915 5916 5917 5917 5918 5919 5920 5921 5922 5923 5924 5926 5927 5928 5928 5928 5928 5929 5930 5931 5933 5934 5934 5935 5935 5936 5937 5938 5939 5938 5938 5938 5937 5937 5937 5937 5937 5937 5938 5938 5938 5940 5942 5942 5943 5943 5943 5944 5944 5944 5944 5944 5945 5945 5946 5946 5948 5948 5948 5949 5949 5949 5950 5950 5950 5951 5952 5953 5953 5953 5953 5955 5956
5890 5892 5893 5893 5892 5893 5897 5899 5897 5898 5902 5903 5904 5905 5906 5907 5908 5907 5908 5909 5910 5911 5913 5914 5914 5915 5916 5918 5918 5920 5921 5922 5922 5923 5924 5926 5927 5929 5929 5929 5930 5930 5930 5931 5932 5933 5934 5935 5936 5936 5937 5938 5939 5940 5940 5939 5939 5938 5938 5938 5939 5939 5939 5939 5940 5942 5943 5943 5944 5944 5945 5945 5945 5945 5945 5945 5946 5946 5948 5949 5950 5950 5951 5951 5951 5952 5953 5953 5953 5954 5954 5955 5955 5956 5957 5958 5958
5889 5891 5892 5892 5892 5892 5895 5897 5896 5897 5900 5902 5903 5904 5906 5906 5906 5906 5907 5908 5910 5912 5913 5914 5915 5915 5916 5918 5919 5920 5921 5922 5922 5923 5924 5926 5927 5929 5930 5930 5931 5931 5931 5932 5932 5933 5934 5935 5937 5937 5938 5939 5940 5941 5941 5941 5940 5940 5940 5940 5940 5940 5941 5941 5942 5943 5943 5944 5945 5946 5947 5948 5948 5948 5948 5948 5948 5948 5950 5951 5951 5952 5953 5953 5954 5954 5955 5955 5955 5956 5957 5957 5958 5959 5960 5960 5960
5889 5891 5892 5891 5891 5892 5893 5896 5896 5897 5900 5902 5903 5904 5905 5906 5906 5907 5908 5909 5910 5912 5913 5914 5914 5915 5917 5917 5918 5919 5920 5921 5922 5923 5924 5926 5927 5929 5930 5931 5931 5932 5932 5933 5933 5934 5934 5935 5936 5938 5938 5939 5940 5941 5942 5943 5943 5943 5943 5943 5943 5943 5944 5944 5944 5944 5944 5944 5945 5946 5948 5949 5950 5951 5951 5951 5951 5951 5952 5952 5953 5954 5954 5955 5955 5956 5957 5958 5958 5958 5959 5960 5960 5961 5961 5961 5961
5886 5889 5891 5891 5891 5892 5893 5895 5896 5896 5899 5902 5903 5904 5905 5905 5905 5907 5909 5909 5911 5912 5912 5912 5913 5915 5916 5917 5918 5919 5920 5921 5922 5923 5924 5925 5927 5929 5930 5931 5932 5932 5933 5934 5934 5935 5935 5936 5936 5937 5938 5939 5940 5941 5941 5943 5943 5944 5945 5945 5946 5946 5946 5945 5945 5945 5945 5945 5946 5947 5948 5949 5951 5952 5953 5953 5953 5953 5954 5954 5955 5955 5956 5957 5957 5958 5959 5959 5960 5960 5960 5961 5962 5962 5961 5961 5962
5883 5885 5887 5889 5889 5889 5892 5894 5896 5896 5897 5901 5903 5904 5905 5905 5905 5906 5907 5908 5910 5911 5911 5911 5913 5915 5916 5917 5918 5919 5920 5921 5922 5923 5924 5925 5927 5928 5930 5931 5932 5933 5933 5934 5935 5936 5936 5937 5937 5938 5938 5939 5940 5941 5941 5942 5943 5944 5945 5946 5946 5946 5946 5946 5946 5946 5946 5946 5947 5948 5949 5950 5951 5952 5953 5954 5955 5955 5956 5956 5957 5957 5957 5958 5959 5959 5960 5960 5960 5961 5961 5962 5962 5962 5962 5962 5963
5882 5882 5884 5887 5887 5887 5890 5892 5894 5895 5896 5900 5902 5902 5903 5904 5905 5905 5906 5907 5908 5909 5910 5911 5914 5915 5915 5916 5918 5920 5920 5921 5922 5923 5924 5925 5926 5928 5930 5931 5932 5933 5933 5934 5935 5936 5937 5938 5938 5938 5939 5940 5941 5941 5942 5942 5943 5944 5945 5946 5946 5946 5947 5947 5947 5947 5948 5948 5949 5949 5950 5951 5952 5953 5954 5955 5956 5956 5957 5957 5958 5958 5959 5960 5960 5960 5960 5961 5961 5961 5962 5962 5963 5963 5963 5964 5965
5880 5881 5882 5885 5886 5886 5888 5890 5892 5893 5895 5898 5899 5900 5902 5903 5904 5905 5905 5906 5907 5908 5909 5911 5913 5914 5915 5916 5918 5920 5921 5921 5921 5923 5924 5925 5926 5928 5929 5930 5932 5933 5934 5935 5936 5937 5937 5938 5939 5939 5940 5941 5941 5942 5943 5943 5944 5945 5946 5947 5947 5948 5948 5948 5949 5949 5949 5950 5950 5951 5951 5952 5953 5953 5954 5955 5956 5957 5958 5958 5959 5959 5960 5961 5961 5961 5962 5962 5963 5963 5963 5964 5964 5965 5965 5966 5967
5878 5878 5880 5884 5885 5885 5886 5889 5891 5891 5893 5895 5897 5898 5900 5902 5903 5903 5904 5905 5906 5908 5909 5910 5911 5912 5914 5916 5917 5919 5921 5921 5921 5923 5924 5925 5926 5927 5929 5930 5931 5932 5933 5934 5936 5937 5938 5939 5939 5940 5941 5941 5942 5943 5943 5944 5945 5946 5947 5948 5948 5949 5949 5950 5950 5951 5951 5951 5951 5952 5953 5953 5954 5955 5956 5956 5957 5958 5959 5959 5960 5960 5961 5962 5962 5963 5963 5964 5965 5965 5965 5966 5966 5967 5967 5968 5969
5875 5877 5880 5882 5883 5884 5886 5888 5890 5890 5891 5892 5895 5897 5898 5900 5900 5900 5902 5905 5906 5907 5908 5909 5910 5911 5914 5916 5916 5917 5920 5921 5922 5923 5924 5925 5926 5927 5929 5930 5931 5932 5933 5934 5936 5937 5938 5939 5940 5941 5941 5942 5943 5943 5944 5945 5946 5947 5948 5948 5950 5950 5950 5951 5951 5952 5952 5953 5953 5953 5954 5955 5955 5956 5957 5958 5958 5959 5960 5961 5961 5962 5963 5963 5964 5964 5965 5966 5967 5967 5967 5967 5968 5969 5969 5970 5971
5872 5876 5879 5879 5881 5884 5886 5887 5888 5888 5887 5889 5892 5895 5897 5897 5898 5899 5901 5904 5906 5907 5908 5909 5910 5911 5913 5915 5915 5917 5919 5921 5921 5922 5923 5924 5926 5927 5929 5930 5931 5931 5933 5934 5935 5937 5938 5939 5940 5941 5942 5943 5943 5944 5945 5946 5947 5947 5948 5949 5951 5952 5952 5952 5953 5953 5954 5955 5955 5955 5955 5956 5957 5958 5958 5959 5960 5961 5961 5962 5963 5964 5964 5965 5965 5966 5967 5967 5968 5969 5969 5969 5970 5970 5971 5972 5973
5871 5874 5876 5877 5879 5883 5885 5886 5887 5886 5886 5889 5892 5894 5896 5896 5896 5898 5900 5903 5905 5907 5907 5909 5910 5911 5912 5914 5915 5916 5919 5920 5921 5922 5923 5924 5925 5927 5929 5930 5931 5932 5933 5934 5935 5937 5938 5939 5940 5941 5942 5943 5944 5945 5946 5947 5947 5948 5949 5950 5951 5952 5953 5954 5954 5954 5955 5956 5956 5957 5957 5958 5958 5959 5960 5960 5961 5962 5963 5963 5964 5965 5966 5967 5967 5968 5968 5969 5970 5970 5971 5971 5972 5972 5973 5973 5974
5866 5870 5874 5876 5879 5882 5883 5884 5886 5887 5888 5890 5891 5893 5895 5895 5895 5897 5900 5903 5904 5905 5907 5907 5909 5911 5912 5914 5915 5916 5918 5919 5920 5921 5922 5924 5925 5927 5928 5930 5931 5932 5933 5934 5935 5937 5938 5939 5940 5941 5942 5943 5944 5945 5946 5947 5948 5948 5949 5950 5951 5952 5954 5955 5955 5956 5957 5957 5958 5958 5959 5959 5960 5960 5961 5962 5962 5963 5964 5965 5965 5966 5967 5968 5969 5969 5970 5971 5971 5972 5972 5973 5973 5974 5974 5975 5975
5863 5868 5871 5874 5878 5880 5881 5883 5885 5886 5887 5888 5888 5890 5892 5893 5894 5896 5899 5901 5903 5904 5905 5906 5908 5910 5912 5914 5915 5915 5916 5918 5919 5920 5921 5923 5924 5926 5928 5929 5931 5932 5933 5934 5935 5937 5938 5939 5940 5941 5942 5943 5944 5946 5947 5947 5948 5949 5950 5950 5951 5952 5954 5955 5956 5957 5957 5958 5959 5960 5960 5961 5961 5962 5962 5963 5964 5964 5965 5966 5966 5967 5968 5969 5970 5971 5971 5972 5972 5973 5974 5974 5975 5975 5976 5976 5977
5862 5864 5867 5870 5874 5877 5879 5881 5883 5884 5885 5886 5886 5887 5889 5890 5893 5895 5897 5900 5903 5904 5905 5906 5907 5909 5911 5913 5914 5915 5915 5917 5918 5919 5920 5922 5923 5925 5927 5929 5930 5932 5933 5934 5935 5937 5938 5939 5940 5941 5942 5943 5944 5946 5947 5948 5948 5949 5950 5951 5951 5952 5954 5955 5956 5957 5958 5959 5960 5961 5961 5962 5962 5963 5964 5964 5965 5966 5966 5967 5967 5968 5969 5970 5971 5971 5972 5973 5973 5974 5975 5975 5976 5976 5977 5977 5978
5860 5862 5865 5869 5871 5874 5878 5880 5881 5883 5884 5885 5885 5884 5886 5887 5890 5894 5897 5899 5902 5903 5905 5907 5908 5909 5910 5912 5913 5914 5914 5915 5917 5918 5920 5921 5923 5925 5927 5929 5930 5931 5933 5934 5935 5936 5938 5939 5940 5941 5942 5943 5944 5946 5947 5948 5949 5949 5950 5951 5952 5953 5954 5955 5956 5958 5958 5959 5960 5961 5962 5963 5964 5964 5965 5965 5966 5967 5967 5968 5968 5969 5969 5970 5971 5972 5973 5974 5974 5975 5975 5976 5976 5977 5978 5978 5978
5856 5859 5864 5867 5869 5872 5876 5878 5880 5880 5881 5885 5886 5883 5883 5885 5887 5891 5895 5898 5901 5902 5903 5905 5908 5908 5909 5910 5912 5912 5913 5914 5915 5917 5919 5920 5922 5924 5926 5928 5930 5931 5932 5933 5934 5935 5937 5939 5940 5941 5942 5943 5944 5945 5947 5948 5949 5949 5950 5951 5953 5954 5954 5955 5956 5958 5958 5959 5960 5961 5962 5963 5964 5965 5966 5966 5967 5967 5968 5969 5969 5970 5970 5971 5972 5973 5974 5974 5975 5975 5976 5976 5977 5978 5978 5979 5979
5852 5857 5861 5865 5867 5869 5872 5874 5876 5877 5880 5885 5886 5882 5881 5884 5885 5887 5891 5896 5899 5901 5902 5904 5906 5907 5908 5909 5910 5911 5912 5913 5914 5916 5918 5919 5921 5923 5924 5926 5928 5930 5931 5932 5934 5935 5936 5938 5940 5941 5941 5942 5943 5944 5946 5947 5948 5949 5950 5951 5953 5954 5955 5955 5956 5957 5958 5959 5960 5961 5962 5963 5964 5965 5966 5967 5968 5968 5969 5969 5970 5970 5971 5972 5972 5973 5974 5975 5975 5976 5976 5977 5977 5978 5978 5979 5980
5850 5853 5858 5862 5864 5866 5868 5870 5872 5874 5880 5883 5882 5880 5880 5882 5884 5885 5887 5892 5896 5900 5901 5902 5904 5905 5907 5908 5909 5910 5912 5912 5913 5915 5916 5918 5919 5921 5923 5925 5927 5928 5929 5930 5932 5933 5935 5937 5939 5940 5941 5942 5943 5944 5945 5946 5947 5948 5949 5950 5952 5954 5955 5955 5956 5957 5958 5959 5960 5961 5962 5963 5964 5965 5966 5967 5968 5969 5969 5970 5970 5971 5971 5972 5973 5974 5974 5975 5975 5976 5977 5977 5978 5978 5979 5979 5980
5848 5851 5854 5858 5861 5863 5865 5868 5870 5873 5879 5881 5879 5877 5876 5877 5881 5882 5884 5888 5892 5896 5898 5900 5902 5903 5904 5905 5907 5909 5911 5912 5912 5914 5916 5917 5918 5919 5921 5923 5926 5927 5927 5929 5930 5932 5934 5936 5938 5940 5941 5941 5942 5943 5944 5945 5947 5948 5948 5950 5951 5953 5954 5955 5956 5957 5958 5959 5960 5961 5962 5963 5964 5964 5965 5966 5968 5969 5970 5970 5971 5971 5972 5972 5973 5973 5974 5975 5975 5976 5977 5977 5978 5978 5979 5979 5980
5847 5849 5851 5854 5858 5861 5864 5868 5870 5873 5877 5878 5876 5874 5873 5873 5877 5880 5882 5884 5888 5892 5895 5897 5899 5901 5902 5904 5906 5908 5910 5912 5913 5914 5915 5916 5917 5918 5920 5922 5924 5926 5926 5927 5929 5931 5932 5934 5936 5939 5940 5941 5941 5942 5943 5945 5946 5947 5948 5949 5950 5952 5953 5955 5956 5957 5958 5958 5959 5960 5961 5962 5963 5964 5965 5966 5967 5968 5969 5970 5971 5972 5972 5972 5973 5973 5974 5974 5975 5976 5976 5977 5977 5978 5978 5979 5980
5844 5847 5848 5852 5857 5860 5864 5867 5869 5871 5873 5873 5873 5872 5871 5871 5874 5877 5879 5881 5884 5888 5891 5893 5896 5898 5901 5903 5905 5907 5909 5911 5912 5913 5914 5915 5916 5918 5920 5921 5922 5924 5925 5925 5927 5929 5930 5932 5934 5937 5939 5940 5941 5941 5943 5944 5945 5946 5947 5948 5950 5951 5952 5954 5955 5956 5957 5958 5959 5959 5960 5961 5962 5963 5964 5965 5966 5967 5968 5970 5971 5971 5972 5973 5973 5973 5974 5974 5975 5975 5976 5977 5977 5978 5978 5979 5979
5840 5845 5846 5850 5855 5858 5860 5863 5866 5869 5870 5869 5871 5871 5870 5870 5873 5875 5878 5880 5882 5885 5889 5891 5893 5897 5900 5902 5904 5906 5907 5909 5910 5912 5913 5915 5916 5917 5918 5919 5920 5921 5923 5924 5926 5928 5929 5930 5932 5934 5937 5938 5940 5941 5942 5943 5944 5945 5946 5948 5949 5950 5951 5953 5954 5955 5956 5957 5958 5958 5959 5960 5961 5962 5963 5964 5965 5966 5967 5968 5970 5971 5972 5972 5973 5973 5974 5974 5974 5975 5975 5976 5977 5977 5978 5978 5979
5836 5840 5843 5848 5852 5853 5856 5859 5863 5866 5865 5864 5867 5867 5866 5868 5871 5872 5874 5877 5879 5883 5887 5890 5892 5896 5898 5900 5902 5903 5905 5907 5908 5910 5912 5913 5914 5915 5916 5917 5917 5918 5921 5922 5924 5926 5928 5929 5931 5932 5934 5936 5938 5940 5941 5942 5944 5945 5946 5947 5948 5949 5950 5951 5953 5954 5955 5956 5956 5957 5959 5960 5960 5961 5962 5963 5964 5965 5966 5967 5968 5970 5971 5971 5972 5973 5973 5974 5974 5974 5975 5975 5976 5976 5977 5978 5978
5833 5835 5839 5844 5848 5851 5854 5856 5860 5862 5860 5861 5863 5863 5862 5865 5869 5868 5868 5871 5876 5880 5884 5887 5890 5893 5896 5898 5899 5901 5903 5905 5907 5909 5911 5912 5913 5914 5914 5915 5916 5917 5920 5921 5922 5924 5926 5927 5929 5930 5932 5934 5936 5938 5939 5941 5942 5944 5945 5946 5947 5948 5950 5950 5951 5952 5953 5954 5955 5956 5957 5958 5959 5960 5961 5961 5962 5963 5965 5966 5967 5968 5969 5970 5971 5972 5972 5973 5973 5974 5974 5974 5975 5976 5976 5977 5978
5831 5834 5837 5841 5846 5851 5852 5854 5857 5858 5857 5858 5859 5860 5860 5863 5867 5867 5865 5868 5872 5876 5881 5884 5887 5890 5893 5895 5897 5899 5901 5903 5905 5907 5909 5911 5911 5911 5912 5913 5914 5916 5918 5920 5921 5922 5924 5926 5927 5928 5931 5932 5934 5936 5937 5939 5941 5942 5943 5945 5946 5947 5949 5950 5950 5951 5952 5953 5954 5955 5956 5957 5958 5959 5959 5960 5961 5962 5963 5964 5965 5966 5967 5968 5969 5970 5971 5972 5973 5973 5974 5974 5974 5975 5975 5976 5977
5830 5833 5837 5842 5846 5850 5851 5853 5856 5855 5854 5855 5856 5858 5858 5860 5863 5865 5866 5867 5869 5872 5877 5880 5883 5886 5889 5892 5894 5896 5899 5901 5903 5905 5907 5909 5909 5909 5910 5911 5913 5915 5916 5917 5919 5919 5921 5923 5925 5926 5928 5930 5932 5934 5935 5936 5938 5940 5941 5942 5944 5946 5947 5949 5949 5950 5950 5951 5952 5953 5954 5955 5956 5957 5958 5959 5960 5961 5961 5962 5963 5964 5965 5966 5968 5969 5970 5971 5972 5972 5973 5973 5973 5974 5975 5975 5976